BIAR

Akureyri Airport

Akureyri, Iceland
Issued Wind Visibility Ceiling Temperature Dew Point Humidity Barometer
Sep-25
07:00 UTC
200°
3 KTS
10,000+ meters   C
41° F
C
36° F
81% 29.94" Hg
1014 hPa
VFR
Sep-25
06:00 UTC
210°
8 KTS
10,000+ meters   C
43° F
C
36° F
76% 29.91" Hg
1013 hPa
VFR
Sep-25
05:00 UTC
200°
7 KTS
10,000+ meters   C
43° F
C
37° F
81% 29.88" Hg
1012 hPa
VFR
Sep-25
04:00 UTC
190°
6 KTS
10,000+ meters   C
45° F
C
37° F
76% 29.85" Hg
1011 hPa
VFR
Sep-25
03:00 UTC
190°
14 KTS
Gust 24 KTS
10,000+ meters   C
48° F
C
39° F
71% 29.82" Hg
1010 hPa
VFR
Sep-25
02:00 UTC
140°
9 KTS
10,000+ meters   C
43° F
C
37° F
81% 29.79" Hg
1009 hPa
VFR
Sep-25
01:00 UTC
120°
7 KTS
10,000+ meters   C
45° F
C
37° F
76% 29.76" Hg
1008 hPa
VFR
Sep-25
00:00 UTC
220°
7 KTS
10,000+ meters   C
48° F
C
37° F
66% 29.73" Hg
1007 hPa
VFR
Sep-24
23:00 UTC
230°
5 KTS
10,000+ meters   C
48° F
C
37° F
66% 29.7" Hg
1006 hPa
VFR
Sep-24
22:00 UTC
160°
14 KTS
10,000+ meters   10° C
50° F
C
37° F
62% 29.68" Hg
1005 hPa
VFR
Sep-24
21:00 UTC
Varies @2 KTS 10,000+ meters   C
48° F
C
37° F
66% 29.62" Hg
1003 hPa
VFR
Sep-24
20:00 UTC
220°
3 KTS
10,000+ meters   10° C
50° F
C
36° F
58% 29.56" Hg
1001 hPa
VFR
Sep-24
19:00 UTC
180°
11 KTS
10,000+ meters   10° C
50° F
C
39° F
67% 29.5" Hg
999 hPa
VFR
Sep-24
18:00 UTC
190°
14 KTS
10,000+ meters   12° C
54° F
C
39° F
58% 29.44" Hg
997 hPa
VFR
Sep-24
17:00 UTC
190°
21 KTS
10,000+ meters   13° C
55° F
C
41° F
59% 29.35" Hg
994 hPa
VFR
Sep-24
16:00 UTC
170°
25 KTS
10,000+ meters   14° C
57° F
C
43° F
59% 29.29" Hg
992 hPa
VFR
Sep-24
15:00 UTC
190°
20 KTS
Gust 33 KTS
10,000+ meters   16° C
61° F
C
46° F
59% 29.23" Hg
990 hPa
VFR
Sep-24
14:06 UTC
190°
17 KTS
Gust 27 KTS
10,000+ meters   17° C
63° F
C
46° F
56% 29.2" Hg
989 hPa
VFR
Sep-24
13:00 UTC
180°
26 KTS
Gust 36 KTS
10,000+ meters Broken
5,400' AGL
16° C
61° F
C
46° F
59% 29.14" Hg
987 hPa
VFR
Sep-24
12:00 UTC
150°
21 KTS
10,000+ meters Broken
5,500' AGL
16° C
61° F
C
43° F
52% 29.11" Hg
986 hPa
VFR
Sep-24
11:01 UTC
160°
18 KTS
Gust 30 KTS
10,000+ meters   17° C
63° F
C
46° F
56% 29.11" Hg
986 hPa
VFR
Sep-24
10:00 UTC
160°
23 KTS
Gust 36 KTS
10,000+ meters   15° C
59° F
C
45° F
59% 29.11" Hg
986 hPa
VFR
Sep-24
09:38 UTC
160°
20 KTS
Gust 32 KTS
10,000+ meters   15° C
59° F
C
45° F
59% 29.11" Hg
986 hPa
VFR
Sep-24
09:00 UTC
160°
15 KTS
10,000+ meters   13° C
55° F
C
43° F
63% 29.11" Hg
986 hPa
VFR
Sep-24
08:00 UTC
150°
13 KTS
10,000+ meters   13° C
55° F
C
45° F
67% 29.11" Hg
986 hPa
VFR